Weather History for Wiscasset, ME

Change the Weather History Date:

Wednesday, September 26, 2012

  Actual Average Record
Temperature  
Mean Temperature 58 °F -  
Max Temperature 64 °F 63 °F 84 °F (2007)
Min Temperature 52 °F 42 °F 37 °F (1996)
Degree Days  
Heating Degree Days 7    
Growing Degree Days 8 (Base 50)    
Moisture  
Dew Point 57 °F    
Average Humidity 82    
Maximum Humidity 90    
Minimum Humidity 75    
Precipitation  
Precipitation 0.00 in - - ()
Sea Level Pressure  
Sea Level Pressure 30.04 in    
Wind  
Wind Speed 5 mph (SSW)    
Max Wind Speed 10 mph    
Max Gust Speed 21 mph    
Visibility 10 miles    
Events      
Averages and records for this station are not official NWS values.
T = Trace of Precipitation, MM = Missing Value Source: NWS Daily Summary

Daily Weather History Graph

Daily Weather History Graph

Search for Another Location

Airport:

Trip Planner

Search our weather history database for the weather conditions in past years. The results will help you decide how hot, cold, wet, or windy it might be!

Date:

Astronomy

Sep. 26, 2012 Rise Set
Actual Time 6:31 AM EDT 6:28 PM EDT
Civil Twilight 6:02 AM EDT 6:56 PM EDT
Nautical Twilight 5:28 AM EDT 7:30 PM EDT
Astronomical Twilight 4:54 AM EDT 8:04 PM EDT
Moon 4:30 PM EDT (9/26) 2:47 AM EDT (9/26)
Length of Visible Light 12h 54m
Length of Day
11h 56m
Waxing Gibbous, 88% of the Moon is Illuminated
Sep 26
Waxing Gibbous
Sep 29
Full
Oct 8
Last Quarter
Oct 15
New
Oct 21
First Quarter

Hourly Weather History & Observations

Time (EDT) Temp. Dew Point Humidity Pressure Visibility Wind Dir Wind Speed Gust Speed Precip Events Conditions
12:53 AM 52.0 °F 48.9 °F 89% 30.12 in 10.0 mi Calm Calm - N/A   Clear
2:53 AM 60.1 °F 53.1 °F 78% 30.10 in 10.0 mi SW 6.9 mph - N/A   Clear
4:53 AM 60.1 °F 54.0 °F 80% 30.09 in 10.0 mi SSW 5.8 mph - N/A   Clear
5:53 AM 61.0 °F 55.0 °F 81% 30.09 in 10.0 mi SSW 6.9 mph - N/A   Clear
6:53 AM 62.1 °F 55.0 °F 78% 30.10 in 10.0 mi SSW 10.4 mph 16.1 mph N/A   Partly Cloudy
8:53 AM 63.0 °F 55.9 °F 78% 30.10 in 10.0 mi SW 8.1 mph 18.4 mph N/A   Overcast
9:53 AM 63.0 °F 57.0 °F 81% 30.09 in 10.0 mi SSW 8.1 mph 20.7 mph N/A   Overcast
10:53 AM 64.0 °F 57.0 °F 78% 30.08 in 10.0 mi SSW 9.2 mph 18.4 mph N/A   Overcast
11:53 AM 63.0 °F 57.9 °F 84% 30.06 in 10.0 mi South 5.8 mph - N/A   Overcast
12:48 PM 64.4 °F 57.2 °F 77% 30.05 in 10.0 mi SSW 8.1 mph 18.4 mph N/A   Overcast
12:53 PM 64.9 °F 57.0 °F 75% 30.05 in 10.0 mi SSW 9.2 mph 17.3 mph N/A   Overcast
1:53 PM 64.9 °F 57.9 °F 78% 30.03 in 10.0 mi SSW 6.9 mph 16.1 mph N/A   Overcast
2:53 PM 64.9 °F 59.0 °F 81% 30.01 in 10.0 mi SW 6.9 mph - N/A   Overcast
3:00 PM 64.4 °F 59.0 °F 83% 30.01 in 10.0 mi Calm Calm - N/A   Overcast
3:53 PM 64.9 °F 59.0 °F 81% 29.99 in 10.0 mi SSW 6.9 mph - N/A   Overcast
4:53 PM 64.9 °F 59.0 °F 81% 29.99 in 10.0 mi Variable 3.5 mph - N/A   Overcast
6:53 PM 64.0 °F 59.0 °F 84% 30.00 in 10.0 mi Calm Calm - N/A   Overcast
7:53 PM 63.0 °F 59.0 °F 87% 30.00 in 10.0 mi SSW 3.5 mph - N/A   Overcast
8:53 PM 63.0 °F 59.0 °F 87% 29.99 in 10.0 mi Calm Calm - N/A   Scattered Clouds
9:53 PM 63.0 °F 59.0 °F 87% 29.99 in 10.0 mi Calm Calm - N/A   Mostly Cloudy
10:53 PM 62.1 °F 59.0 °F 90% 29.99 in 10.0 mi Variable 3.5 mph - N/A   Partly Cloudy
11:53 PM 61.0 °F 57.9 °F 90% 29.98 in 10.0 mi Calm Calm - N/A   Clear